HULIANWANG DIGUI-128

导读 | 豆包AI

HULIANWANG DIGUI-128是中国于2025年12月25日发射的卫星,归属互联网低轨星座系统,是中国构建全球低轨卫星互联网的重要组成部分,将承担星座组网、天地一体化信息网络技术验证等任务,进一步完善中国低轨卫星星座布局,为后续全球宽带互联网覆盖、物联网等应用奠定基础。

基本信息
目录编号:
67236
目录名称:
HULIANWANG DIGUI-128
国际标识:
2025-311A
轨道中心:
EARTH
卫星名称:
HULIANWANG DIGUI-128
卫星全名:
HULIANWANG DIGUI-128
卫星状态:
在轨 (已飞行151 天)
发射日期:
2025-12-25 UTC
国别 :
中国 (CN)
星等 :
--
轨道信息
数据来源 国际轨道数据 AOE轨道数据
星历时间 2026-05-24T11:06:15+0800
1天前
查看轨道信息
2026-05-21T07:00:00+0800
4天前
查看轨道信息
半长轴 7527.457km 7527.455km
偏心率 0.0000987 0.000088
轨道倾角 50.007° 50.006°
近地点辐角 243.850° 223.856°
升交点赤经 201.825° 213.197°
平近点角 116.227° 71.782°
近地点 1148.577km 1148.655km
远地点 1150.063km 1149.981km
周期 108.326分钟 108.326分钟
每日圈数 13.293225 13.29323
详细信息
使用方式:
暂无
2D轨道图
3D轨道图
轨道高度分析图
轨道倾角分析图
轨道综合分析图
查看轨道综合分析图